Lexington Weather

Lexington, Massachusetts, USA

59°F
10/23/2020 6:05pm 
  • Lexington Conditions: Overcast
  • Temperature: 58.6°F / 14.8°CColder 2.4°F than last hour.
  • Dew Point: 53.2°FDecreased 1.5°Fsince last hour.
  • Relative Humidity: 82%Increased 2.0% since last hour.
  • Wind: Wind from SW SW 1 mph, 10-min avg: 1 mph, gust: 6 mph
  • Barometer: 30.08 in Steady
  • Visibility: 10 miles
  • Rain Today: 0.00 in
  •   

Regional Weather Roundup
for Boston / Norton, MA

        
000
ASUS41 KBOX 230604
RWRBOX

REGIONAL WEATHER ROUNDUP
NATIONAL WEATHER SERVICE BOSTON/NORTON MA
200 AM EDT FRI OCT 23 2020

NOTE:  "FAIR" INDICATES FEW OR NO CLOUDS BELOW 12,000 FEET WITH NO 
SIGNIFICANT WEATHER AND/OR OBSTRUCTIONS TO VISIBILITY.

MAZALL-230700-
EASTERN MASSACHUSETTS
  
CITY           SKY/WX    TMP DP  RH WIND       PRES   REMARKS
BOSTON         FOG       55  55 100 E6        30.26F VSB 1/2          
6HR MIN TEMP:  54; 6HR MAX TEMP:  55;                                

BEVERLY        CLOUDY    57  56  96 E6        30.25F                  
LAWRENCE       CLOUDY    57  55  93 E5        30.27F                  
BEDFORD        CLOUDY    57  56  96 E3        30.24F FOG              
BLUE HILL        N/A     54  54 100 E6        30.25S                  
NORWOOD        CLOUDY    58  55  90 CALM      30.25S FOG              
MARSHFIELD     FOG       57  57 100 CALM      30.26S VSB 3/4          
PLYMOUTH       FOG       55  54  96 NE5       30.25F VSB 1/2          
TAUNTON        FOG       56  54  93 CALM      30.25F VSB 1/2          
NEW BEDFORD    FOG       56  56 100 CALM      30.24F VSB 1/4          
$$

MAZALL-230700-
CAPE COD AND THE ISLANDS
  
CITY           SKY/WX    TMP DP  RH WIND       PRES   REMARKS
FALMOUTH       FOG       55  55 100 CALM      30.25F VSB 1/4          
HYANNIS        FOG       55  55 100 NE5       30.24S VSB 1/4          
CHATHAM        FOG       57  56  96 NE6       30.26F VSB 1/2          
PROVINCETOWN   FOG       56  56 100 E5        30.27S VSB 1            
NANTUCKET      FOG      N/A N/A N/A NE8       30.24F VSB 1/2          
MARTHAS VNYRD  FOG       57  56  96 NE8       30.25S VSB 1/4          
$$
 
MAZALL-230700-
CENTRAL AND WESTERN MASSACHUSETTS
  
CITY           SKY/WX    TMP DP  RH WIND       PRES   REMARKS
WORCESTER      CLOUDY    56  53  90 NE3       30.25S                  
6HR MIN TEMP:  56; 6HR MAX TEMP:  64;                                

FITCHBURG      CLOUDY    56  53  90 SE3       30.26F                  
ORANGE         CLOUDY    63  59  87 E5        30.23F                  
SPRINGFIELD    CLOUDY    65  62  87 S3        30.20S                  
WESTFIELD      CLOUDY    64  62  93 S7        30.20F                  
NORTH ADAMS    CLEAR     53  51  93 CALM      30.20F                  
PITTSFIELD     CLOUDY    62  60  93 S3        30.20F                  
$$
 
RIZALL-230700-
RHODE ISLAND
  
CITY           SKY/WX    TMP DP  RH WIND       PRES   REMARKS
PROVIDENCE     CLOUDY    62  59  90 SE5       30.24F                  
6HR MIN TEMP:  62; 6HR MAX TEMP:  65;                                

NEWPORT        CLOUDY    58  57  97 E5        30.24F FOG              
BLOCK ISLAND   CLOUDY    60  60 100 E7        30.24S FOG              
SMITHFIELD     CLOUDY    59  58  96 E6          N/A                   
WESTERLY       CLOUDY    62  61  96 CALM      30.23F FOG              
$$
 
CTZALL-230700-
CONNECTICUT
  
CITY           SKY/WX    TMP DP  RH WIND       PRES   REMARKS
BRADLEY INTL   CLOUDY    66  61  84 S6        30.20F                  
6HR MIN TEMP:  65; 6HR MAX TEMP:  69;                                

HARTFORD       CLOUDY    66  62  87 S5        30.21F                  
BRIDGEPORT     CLOUDY    66  63  90 CALM      30.21F                  
DANBURY        CLOUDY    64  61  90 CALM      30.23F FOG              
GROTON         CLOUDY    62  62 100 CALM      30.22F FOG              
NEW HAVEN      CLOUDY    65  64  97 E8        30.21F FOG              
CHESTER        FOG       63  63 100 CALM      30.23S VSB 1            
MERIDEN        CLOUDY    65  61  87 CALM      30.21F                  
WILLIMANTIC    CLOUDY    64  61  90 SE5       30.22F                  
OXFORD         CLOUDY    62  62 100 CALM      30.23F FOG              
$$

MEZ002-015-021-024-NHZ003-005-008-011-012-014-VTZ005-008-230700-
NORTHERN NEW ENGLAND
  
CITY           SKY/WX    TMP DP  RH WIND       PRES   REMARKS
PORTLAND ME    CLOUDY    53  52  96 NE3       30.29F                  
6HR MIN TEMP:  51; 6HR MAX TEMP:  53;                                

BANGOR ME      CLOUDY    51  45  79 CALM      30.31S                  
CONCORD NH     CLOUDY    54  51  90 CALM      30.25F                  
MANCHESTER NH  CLOUDY    56  53  90 E3        30.25F FOG              
NASHUA NH      CLOUDY    56  56 100 CALM      30.26F                  
PORTSMOUTH NH  CLOUDY    56  53  92 E5        30.25                   
JAFFREY NH     CLOUDY    56  53  90 VRB3      30.25F                  
KEENE NH       CLOUDY    62  58  86 CALM      30.22F                  
BURLINGTON VT  CLOUDY    54  48  80 S3        30.17F                  
MT. WASHINGTON NOT AVBL                                               
$$

NYZ052-076-230700-
EASTERN NEW YORK
  
CITY           SKY/WX    TMP DP  RH WIND       PRES   REMARKS
ALBANY         CLOUDY    54  54 100 CALM      30.19F                  
6HR MIN TEMP:  50; 6HR MAX TEMP:  60;                                

NEW YORK CITY  CLOUDY    65  62  90 S6        30.20F                  
6HR MIN TEMP:  65; 6HR MAX TEMP:  68;                                

$$
 
ANZALL-230700-
MARINE OBSERVATIONS
  
STATION/POSITION TIME  TEMP    WIND        PRES    VSBY  WAVE
                       AIR SEA DIR/SP/G                  HT/PER
                 (UTC) (F)     (DEG/KT/KT) (MB)    (MI)  (FT/S)
BOSTON BUOY      0550   56 57   70/  6/  8 1023.8F         3/13
BUZZARDS BAY     0500           50/  5/  6 1025.3F
NANTUCKET SOUND  0550      62   40/  8/ 10   N/A           1
MASS BAY-STELLWA 0504   57 57  120/  4/  6 1024.7S  1 7/8  4/11
ISLE OF SHOALS   0500   56      80/  7/  7 1024.5F
S OF BLOCK IS    0526      63                N/A           5/13
$$

......................KEY.........................
  SKY/WX - SKY CONDITION/PRESENT WEATHER
  TMP    - TEMPERATURE IN FAHRENHEIT
  DWPT   - DEWPOINT IN FAHRENHEIT
  RH     - RELATIVE HUMIDITY IN PERCENT
  WIND   - DIRECTION AND SPEED IN MPH
  PRES   - MEAN SEA LEVEL PRESSURE IN INCHES OF HG
  WCI    - WIND CHILL INDEX
  VSB    - VISIBILITY IN MILES
  HX     - HEAT INDEX
  TC     - TEMPERATURE IN CELSIUS
  VRB    - VARIABLE WIND DIRECTION
  N/A    - NOT AVAILABLE
  
      

Other recent Regional Weather Roundups

Fri Oct 23, 5:05pm

Fri Oct 23, 4:04pm

Fri Oct 23, 3:04pm

Fri Oct 23, 2:05pm

Fri Oct 23, 1:04pm

Fri Oct 23, 12:04pm

Fri Oct 23, 11:04am

Fri Oct 23, 10:04am

Fri Oct 23, 9:04am

Fri Oct 23, 8:04am

Fri Oct 23, 7:04am

Fri Oct 23, 6:04am

Fri Oct 23, 5:04am

Fri Oct 23, 4:04am

Fri Oct 23, 3:04am

Fri Oct 23, 1:04am

Fri Oct 23, 12:04am

Thu Oct 22, 11:04pm

Thu Oct 22, 10:04pm

Thu Oct 22, 9:05pm

Thu Oct 22, 8:04pm

Thu Oct 22, 7:05pm

Thu Oct 22, 6:04pm

Thu Oct 22, 5:04pm

Thu Oct 22, 4:05pm

Thu Oct 22, 3:04pm

Thu Oct 22, 2:05pm

Thu Oct 22, 1:04pm

Thu Oct 22, 12:04pm

Thu Oct 22, 11:04am

Thu Oct 22, 10:05am

Thu Oct 22, 9:04am

Thu Oct 22, 8:05am

Thu Oct 22, 7:04am

Thu Oct 22, 6:04am

Thu Oct 22, 5:04am

Thu Oct 22, 4:04am

Thu Oct 22, 3:04am

Thu Oct 22, 2:04am

Thu Oct 22, 1:04am

Thu Oct 22, 12:04am

Wed Oct 21, 11:05pm

Wed Oct 21, 10:04pm

Wed Oct 21, 9:04pm

Wed Oct 21, 8:04pm

Wed Oct 21, 7:04pm

Wed Oct 21, 6:04pm

Wed Oct 21, 5:05pm

Wed Oct 21, 4:04pm

Wed Oct 21, 3:04pm

Wed Oct 21, 2:05pm

Wed Oct 21, 1:04pm

Wed Oct 21, 12:04pm

Wed Oct 21, 11:04am

Wed Oct 21, 10:04am

Wed Oct 21, 9:04am

Wed Oct 21, 8:04am

Wed Oct 21, 7:04am

Wed Oct 21, 6:04am

Wed Oct 21, 5:04am

Wed Oct 21, 4:04am

Wed Oct 21, 3:04am

Wed Oct 21, 2:04am

Wed Oct 21, 1:04am

Wed Oct 21, 12:04am

Tue Oct 20, 11:05pm

Tue Oct 20, 10:04pm

Tue Oct 20, 9:04pm

Tue Oct 20, 8:05pm

Tue Oct 20, 7:04pm

Tue Oct 20, 6:04pm

Tue Oct 20, 5:05pm

Tue Oct 20, 4:04pm

Tue Oct 20, 3:05pm

Tue Oct 20, 2:07pm

Tue Oct 20, 1:04pm

Tue Oct 20, 12:04pm

Tue Oct 20, 11:04am

Tue Oct 20, 10:05am

Tue Oct 20, 9:04am

Tue Oct 20, 8:04am

Tue Oct 20, 7:04am

Tue Oct 20, 6:04am

Tue Oct 20, 5:04am

Tue Oct 20, 4:04am

Tue Oct 20, 3:04am

Tue Oct 20, 2:04am

Tue Oct 20, 1:04am

Tue Oct 20, 12:04am

Mon Oct 19, 11:04pm

Mon Oct 19, 10:04pm

Mon Oct 19, 9:04pm

Mon Oct 19, 8:04pm

Mon Oct 19, 7:04pm

Mon Oct 19, 6:04pm

Mon Oct 19, 5:04pm

Mon Oct 19, 4:04pm

Mon Oct 19, 3:04pm

Mon Oct 19, 2:04pm

Mon Oct 19, 1:05pm

Mon Oct 19, 12:04pm

Mon Oct 19, 11:04am

Mon Oct 19, 10:04am

Mon Oct 19, 9:04am

Mon Oct 19, 8:04am

Mon Oct 19, 7:04am

Mon Oct 19, 6:04am

Mon Oct 19, 5:04am

Mon Oct 19, 4:04am

Mon Oct 19, 3:04am

Mon Oct 19, 2:04am

Mon Oct 19, 1:04am

Mon Oct 19, 12:05am

Sun Oct 18, 11:04pm

Sun Oct 18, 10:04pm

Sun Oct 18, 9:04pm

Sun Oct 18, 8:04pm

Sun Oct 18, 7:05pm

Sun Oct 18, 6:04pm

Sun Oct 18, 5:05pm

Sun Oct 18, 4:05pm

Sun Oct 18, 3:04pm

Sun Oct 18, 2:05pm

Sun Oct 18, 1:04pm

Sun Oct 18, 12:04pm

Sun Oct 18, 11:04am

Sun Oct 18, 10:04am

Sun Oct 18, 9:04am

Sun Oct 18, 8:04am

Sun Oct 18, 7:04am

Sun Oct 18, 6:04am

Sun Oct 18, 5:04am

Sun Oct 18, 4:04am

Sun Oct 18, 3:04am

Sun Oct 18, 2:04am

Sun Oct 18, 1:04am

Sun Oct 18, 12:04am

Sat Oct 17, 11:05pm

Sat Oct 17, 10:04pm

Sat Oct 17, 9:04pm

Sat Oct 17, 8:04pm

Sat Oct 17, 7:04pm

Sat Oct 17, 6:04pm

Sat Oct 17, 5:05pm

Sat Oct 17, 4:04pm

Sat Oct 17, 3:04pm

Sat Oct 17, 2:05pm

Sat Oct 17, 1:05pm

Sat Oct 17, 12:04pm

Sat Oct 17, 11:05am

Sat Oct 17, 10:04am

Sat Oct 17, 9:04am

Sat Oct 17, 8:04am

Sat Oct 17, 7:04am

Sat Oct 17, 6:04am

Sat Oct 17, 5:04am

Sat Oct 17, 4:04am

Sat Oct 17, 3:04am

Sat Oct 17, 2:04am

Sat Oct 17, 1:05am

Sat Oct 17, 12:04am

Fri Oct 16, 11:05pm

Fri Oct 16, 10:04pm

Fri Oct 16, 9:05pm

Fri Oct 16, 8:04pm

Fri Oct 16, 7:05pm

Fri Oct 16, 6:04pm

Meta data:

ID: c9606e89-78cb-419d-a24a-76e1964e2422
Link: https://api.weather.gov/products/c9606e89-78cb-419d-a24a-76e1964e2422